Location: Date Creek
(34.2167°N, 113.0301°W)
Time: 19:36:50
(UTC-07:00)

Tiangong 2 - Visible Passes

Search period start: 18 June 2018 00:00
Search period end: 28 June 2018 00:00
Orbit: 292 x 297 km, 42.8° (Epoch: 18 June)

Date Brightness Start Highest point End Pass type
(mag) Time Alt. Az. Time Alt. Az. Time Alt. Az.
23 Jun 3.1 04:30:22 10° S 04:31:49 14° SE 04:33:17 10° ESE visible
24 Jun 1.7 04:35:37 12° SSW 04:37:42 32° SE 04:40:03 10° ENE visible
25 Jun 0.4 04:41:14 12° WSW 04:43:35 87° SSE 04:46:08 10° ENE visible
26 Jun 3.6 03:16:23 12° ESE 03:16:23 12° ESE 03:16:44 10° E visible
26 Jun 1.5 04:47:03 10° W 04:49:29 40° NNW 04:51:55 10° NE visible
27 Jun 2.7 03:21:46 24° E 03:21:46 24° E 03:23:03 10° ENE visible
